This is the latest recevied weather packets stored in our database for station/object YO9FTR-10. If no packets are shown the sender has not sent any weather packets the latest 10 day(s).
| Time | Temp. | Humidity | Pressure | Rain* | Wind** | Luminosity | Snow |
|---|---|---|---|---|---|---|---|
| 1777834846 | 3.89° C | 79% | 1024 hPa | - | - | - | - |
| 1777833943 | 5° C | 72% | 1024 hPa | - | - | - | - |
| 1777833041 | 4.44° C | 77% | 1023.9 hPa | - | - | - | - |
| 1777832138 | 4.44° C | 77% | 1023.9 hPa | - | - | - | - |
| 1777831235 | 5° C | 74% | 1023.9 hPa | - | - | - | - |
| 1777830332 | 6.11° C | 70% | 1023.8 hPa | - | - | - | - |
| 1777829429 | 6.67° C | 67% | 1023.5 hPa | - | - | - | - |
| 1777828526 | 7.78° C | 60% | 1023.6 hPa | - | - | - | - |
| 1777827623 | 10° C | 49% | 1023.4 hPa | - | - | - | - |
| 1777826721 | 11.67° C | 45% | 1023.2 hPa | - | - | - | - |
| 1777825818 | 11.67° C | 43% | 1022.9 hPa | - | - | - | - |
| 1777824916 | 12.78° C | 40% | 1022.7 hPa | - | - | - | - |
| 1777824012 | 12.22° C | 40% | 1022.7 hPa | - | - | - | - |
| 1777823109 | 13.89° C | 37% | 1022.6 hPa | - | - | - | - |
| 1777822206 | 13.33° C | 39% | 1022.7 hPa | - | - | - | - |
| 1777821304 | 13.33° C | 37% | 1022.8 hPa | - | - | - | - |
| 1777820401 | 13.33° C | 37% | 1022.8 hPa | - | - | - | - |
| 1777819498 | 13.89° C | 36% | 1022.9 hPa | - | - | - | - |
| 1777818596 | 12.78° C | 40% | 1023.1 hPa | - | - | - | - |
| 1777817692 | 14.44° C | 33% | 1023.2 hPa | - | - | - | - |
| 1777816789 | 13.33° C | 37% | 1023.3 hPa | - | - | - | - |
| 1777815887 | 15° C | 35% | 1023.4 hPa | - | - | - | - |
| 1777814984 | 12.22° C | 35% | 1023.7 hPa | - | - | - | - |
| 1777814081 | 16.11° C | 33% | 1023.7 hPa | - | - | - | - |
| 1777813179 | 13.89° C | 36% | 1023.9 hPa | - | - | - | - |
* Rain since midnight (hover to see other rain measurements)
** Current wind speed in m/s (hover to see current wind gust speed)